Regional Weather Roundup
Issued by NWS Sterling, VA

Home | Current Version | Previous Version | Graphics & Text | Print | Product List | Glossary On
Versions: 1 2 3 4 5 6 7 8 9 10 11 12 13 14 15 16 17 18 19 20 21 22 23 24 25 26 27 28 29 30 31 32 33 34 35 36 37 38 39 40 41 42 43 44 45 46 47 48 49 50
000
ASUS41 KLWX 032010
RWRLWX

REGIONAL WEATHER ROUNDUP
NATIONAL WEATHER SERVICE BALTIMORE MD/WASHINGTON DC
300 PM EST TUE MAR 03 2015

Note: "FAIR" indicates few or no clouds below 12,000 feet
with no significant weather and/or obstructions to visibility.
 TC=TEMPERATURE CELSIUS

 * =Non NWS site. Station does not report precipitation (e.g. rain,
    snow, etc.), thunder, or fog.

DCZ001-MDZ009-015-VAZ040>042-051-053>054-032100-
WASHINGTON METRO

CITY           SKY/WX    TMP DP  RH WIND       PRES   REMARKS
WASHINGTON NAT CLOUDY    34  22  61 S9        30.23F WCI  27
DULLES         CLOUDY    32  18  56 SE7       30.19F
ANDREWS AFB    CLOUDY    30  23  75 SE7       30.20F
FT BELVOIR     CLOUDY    33  22  63 SE7       30.21F
QUANTICO       CLOUDY    34  24  67 S10       30.23F WCI  26
COLLEGE PARK*  CLOUDY    32  27  80 SE5       30.22F
LEESBURG*      CLOUDY    34  23  64 S12       30.18F WCI  25
MANASSAS*      CLOUDY    34  19  55 S9        30.20F WCI  26
GAITHERSBURG*  CLOUDY    28  19  69 SE9       30.21F WCI  20

$$

MDZ006>007-011-014-032100-
BALTIMORE METRO

CITY           SKY/WX    TMP DP  RH WIND       PRES   REMARKS
BWI AIRPORT    CLOUDY    29  24  82 SE5       30.22F
MD SCIENCE CTR   N/A     30  24  78 MISG      30.22F
MARTIN STATE   CLOUDY    30  27  86 SE9       30.26F WCI  22
ANNAPOLIS      MIX PCPN  31  24  75 S10       30.23F WCI  22
FORT MEADE*    CLOUDY    30  27  86 SE3       30.24F

$$

MDZ012-015-019>023-032100-
MARYLAND EASTERN SHORE

CITY           SKY/WX    TMP DP  RH WIND       PRES   REMARKS
OCEAN CITY     MIX PCPN  32  27  81 CALM      30.26F
SALISBURY      CLOUDY    37  29  72 SE6       30.24F
BAY BRIDGE AP*   N/A     32  28  86 SE6       30.23F
CAMBRIDGE*     CLOUDY    36  30  80 CALM      30.23F
EASTON*        LGT RAIN  34  28  80 CALM      30.28F FOG

$$

MDZ017>025-032100-
SOUTHERN MARYLAND

CITY           SKY/WX    TMP DP  RH WIND       PRES   REMARKS
PATUXENT RIVER FRZ RAIN  32  24  72 SE6       30.23F
ST INIGOES     LGT RAIN  33  23  66 SE5       30.23F
LEONARDTOWN*   CLOUDY    32  25  74 SE3       30.24F

$$

MDZ003>005-032100-
NORTH CENTRAL MARYLAND

CITY           SKY/WX    TMP DP  RH WIND       PRES   REMARKS
FREDERICK*     CLOUDY    34  18  51 S9        30.20F WCI  26
HAGERSTOWN APT CLOUDY    32  16  51 SE17G25   30.09F WCI  21
WESTMINSTER*   CLOUDY    28  23  80 SE9       30.14F WCI  20

$$

MDZ501>502-032100-
WESTERN MARYLAND

CITY           SKY/WX    TMP DP  RH WIND       PRES   REMARKS
OAKLAND*       CLOUDY    28 N/A N/A SE15      29.87F FOG     WCI  17
CUMBERLAND*    CLOUDY    36  25  64 SE3       30.06F

$$

VAZ025>031-032100-
SHENANDOAH VALLEY

CITY           SKY/WX    TMP DP  RH WIND       PRES   REMARKS
WINCHESTER*    CLOUDY    34  14  44 SE14G20   30.08F WCI  24
FRONT ROYAL*   CLOUDY    34  19  55 S7        30.10F
LURAY*         CLOUDY    37  27  65 SW16G24   30.10F WCI  28
NEW MARKET*    CLOUDY    35  26  68 S17G29    30.08F WCI  25
STAUNTON*      CLOUDY    35  25  66 S7        30.14F
WAYNESBORO*    CLOUDY    34  24  67 CALM      30.12F

$$

WVZ021-048>050-054>055-032100-
EASTERN WEST VIRGINIA PANHANDLE

CITY           SKY/WX    TMP DP  RH WIND       PRES   REMARKS
MARTINSBURG    CLOUDY    34  16  47 S10G22    30.10F WCI  26
PETERSBURG*    NOT AVBL

$$

VAZ036>039-050-032100-
CENTRAL FOOTHILLS

CITY           SKY/WX    TMP DP  RH WIND       PRES   REMARKS
CHARLOTTESVILL CLOUDY    34  17  50 S9        30.18F WCI  27
CULPEPER*      CLOUDY    36  18  48 S7        30.19F
ORANGE*        CLOUDY    36  19  51 S5        30.21F
GORDONSVILLE*  CLOUDY    34  17  50 SW10      30.19F WCI  26
WARRENTON*     CLOUDY    36  23  61 S9        30.18F WCI  29

$$

VAZ055>057-032100-
NORTH AND CENTRAL PIEDMONT

CITY           SKY/WX    TMP DP  RH WIND       PRES   REMARKS
FREDERICKSBRG* CLOUDY    36  21  53 S8        30.21F
STAFFORD*      CLOUDY    34  15  46 S6        30.25F

$$

NCZ024-NYZ072-PAZ021-071-VAZ022-071-032100-
OTHER REGIONAL OBSERVATIONS

CITY           SKY/WX    TMP DP  RH WIND       PRES   REMARKS
NEW YORK CITY  CLOUDY    31  17  56 S10G20    30.28F WCI  22
PHILADELPHIA   LGTSLEET  33  15  47 S10       30.26F WCI  25
PITTSBURGH     LGT RAIN  35  28  75 SE5       29.84F
ROANOKE        CLOUDY    37  28  70 SE7       30.19F
RICHMOND       CLOUDY    37  22  54 S8        30.23F
RALEIGH        DRIZZLE   36  30  79 CALM      30.24F FOG

$$

ANZ530>537-032100-
MARINE OBSERVATIONS

STATION/POSITION TIME  TEMP    WIND        PRES
                       AIR SEA DIR/SP/G
                 (UTC) (F)     (DEG/KT/KT) (MB)
THOMAS PT LIGHT  2000   30 32  170/ 13/ 14 1024.7F
BALT KEY BRIDGE  1900   29     140/ 11/ 12 1025.1F
COVE POINT       1900   29     190/ 12/ 13 1025.3F
LEWISETTA        1900   33 33  180/  1/  6 1024.9F
SOLOMONS ISLAND  1900      33                N/A

$$



USA.gov is the U.S. government's official web portal to all federal, state and local government web resources and services.